EA5HPA-11 Weather Reports


time (UTC)temp
C
wind
direction
speed
KPH
gust
KPH
rain 1hr
cm
rain 24hr
cm
rain mn
cm
humidity
%
barometer
mb
20260507013452 16 3 4.8 8.0 0.00 0.00 0.00 83 1010.0
20260507012951 16 3 4.8 8.0 0.00 0.00 0.00 83 1011.0
20260507012450 16 3 4.8 8.0 0.00 0.00 0.00 83 1011.0
20260507011949 16 3 4.8 8.0 0.00 0.00 0.00 83 1011.0
20260507011449 16 3 4.8 8.0 0.00 0.00 0.00 83 1011.0
20260507010948 16 3 4.8 8.0 0.00 0.00 0.00 83 1011.0
20260507010447 16 3 4.8 8.0 0.00 0.00 0.00 83 1011.0
20260507005946 16 3 4.8 8.0 0.00 0.00 0.00 83 1011.0
20260507005445 16 3 4.8 8.0 0.00 0.00 0.00 83 1011.0
20260507004944 16 3 4.8 8.0 0.00 0.00 0.00 83 1011.0
20260507004443 16 3 4.8 8.0 0.00 0.00 0.00 83 1011.0
20260507003942 16 3 4.8 8.0 0.00 0.00 0.00 83 1011.0
20260507003442 16 3 4.8 8.0 0.00 0.00 0.00 83 1011.0
20260507002941 16 3 4.8 8.0 0.00 0.00 0.00 83 1011.0
20260507002440 16 3 4.8 8.0 0.00 0.00 0.00 83 1011.0
20260507001939 16 3 4.8 8.0 0.00 0.00 0.00 83 1011.0
20260507001438 16 3 4.8 8.0 0.00 0.00 0.00 83 1011.0
20260507000937 16 3 4.8 8.0 0.00 0.00 0.00 83 1011.0
20260507000436 16 3 4.8 8.0 0.00 0.00 0.00 83 1011.0
20260506235935 16 3 4.8 8.0 0.00 0.00 0.00 83 1011.0
20260506235434 16 3 4.8 8.0 0.00 0.00 0.00 83 1011.0
20260506234934 16 3 4.8 8.0 0.00 0.00 0.00 83 1011.0
20260506234433 16 3 4.8 8.0 0.00 0.00 0.00 83 1011.0
20260506233932 16 3 4.8 8.0 0.00 0.00 0.00 83 1011.0
20260506233431 16 3 4.8 8.0 0.00 0.00 0.00 83 1012.0
20260506232930 16 3 4.8 8.0 0.00 0.00 0.00 83 1012.0
20260506232429 16 3 4.8 8.0 0.00 0.00 0.00 83 1012.0
20260506231928 16 3 4.8 8.0 0.00 0.00 0.00 83 1012.0
20260506231427 16 23 1.6 6.4 0.00 0.00 0.00 83 1012.0
20260506230926 16 23 1.6 6.4 0.00 0.00 0.00 83 1012.0
20260506230426 16 23 1.6 6.4 0.00 0.00 0.00 83 1012.0
20260506225925 16 19 1.6 6.4 0.00 0.00 0.00 83 1012.0
20260506225424 16 19 1.6 6.4 0.00 0.00 0.00 83 1012.0
20260506181205 19 80 22.5 0.0 0.00 0.00 0.00 69 1011.0
20260506180704 19 80 22.5 0.0 0.00 0.00 0.00 69 1011.0
20260506180203 19 80 22.5 0.0 0.00 0.00 0.00 68 1011.0
20260506175702 19 80 22.5 0.0 0.00 0.00 0.00 68 1011.0
20260506175201 19 80 22.5 0.0 0.00 0.00 0.00 68 1011.0
20260506174700 19 80 22.5 0.0 0.00 0.00 0.00 68 1011.0
20260506173658 19 80 22.5 0.0 0.00 0.00 0.00 68 1011.0
20260506173157 19 80 22.5 0.0 0.00 0.00 0.00 68 1011.0
20260506172656 19 80 22.5 0.0 0.00 0.00 0.00 68 1010.0
20260506172155 20 80 22.5 0.0 0.00 0.00 0.00 68 1010.0
20260506171654 20 80 22.5 0.0 0.00 0.00 0.00 68 1010.0
20260506171153 20 80 22.5 0.0 0.00 0.00 0.00 69 1010.0
20260506170652 20 80 22.5 0.0 0.00 0.00 0.00 69 1010.0
20260506170151 20 80 22.5 0.0 0.00 0.00 0.00 66 1010.0
20260506165650 20 80 22.5 0.0 0.00 0.00 0.00 66 1010.0
20260506165149 20 80 22.5 0.0 0.00 0.00 0.00 66 1010.0
20260506164648 20 80 22.5 0.0 0.00 0.00 0.00 66 1010.0
20260506164147 20 80 22.5 0.0 0.00 0.00 0.00 67 1010.0
20260506163646 20 80 22.5 0.0 0.00 0.00 0.00 67 1010.0
20260506163145 20 80 22.5 0.0 0.00 0.00 0.00 67 1010.0
20260506162644 20 80 22.5 0.0 0.00 0.00 0.00 67 1010.0
20260506162143 20 80 22.5 0.0 0.00 0.00 0.00 68 1010.0
20260506161642 20 80 22.5 0.0 0.00 0.00 0.00 68 1010.0
20260506161141 20 70 20.9 0.0 0.00 0.00 0.00 70 1010.0
20260506160640 20 70 20.9 0.0 0.00 0.00 0.00 70 1010.0
20260506160139 20 70 20.9 0.0 0.00 0.00 0.00 70 1010.0
20260506155638 20 70 20.9 0.0 0.00 0.00 0.00 70 1010.0
20260506155137 20 70 20.9 0.0 0.00 0.00 0.00 69 1010.0
20260506154637 20 70 20.9 0.0 0.00 0.00 0.00 69 1010.0
20260506154135 21 70 20.9 0.0 0.00 0.00 0.00 68 1010.0
20260506153635 21 70 20.9 0.0 0.00 0.00 0.00 68 1010.0
20260506153133 21 70 20.9 0.0 0.00 0.00 0.00 67 1010.0
20260506152132 21 70 20.9 0.0 0.00 0.00 0.00 67 1010.0
20260506151631 21 70 20.9 0.0 0.00 0.00 0.00 67 1010.0
20260506151130 21 70 20.9 0.0 0.00 0.00 0.00 67 1010.0
20260506150629 21 70 20.9 0.0 0.00 0.00 0.00 67 1010.0
20260506150128 21 70 20.9 0.0 0.00 0.00 0.00 67 1010.0
20260506145627 21 70 20.9 0.0 0.00 0.00 0.00 66 1010.0
20260506145126 21 70 20.9 0.0 0.00 0.00 0.00 66 1010.0
20260506144625 21 70 20.9 0.0 0.00 0.00 0.00 66 1010.0
20260506144124 21 70 20.9 0.0 0.00 0.00 0.00 66 1010.0
20260506143623 21 70 20.9 0.0 0.00 0.00 0.00 64 1010.0
20260506143122 21 70 20.9 0.0 0.00 0.00 0.00 60 1010.0
20260506142621 21 70 20.9 0.0 0.00 0.00 0.00 60 1010.0
20260506142120 21 70 20.9 0.0 0.00 0.00 0.00 60 1010.0
20260506141619 21 70 20.9 0.0 0.00 0.00 0.00 60 1010.0
20260506141118 21 91 20.9 33.8 0.00 0.00 0.00 64 1010.0
20260506140617 21 91 20.9 33.8 0.00 0.00 0.00 64 1010.0
20260506140116 21 160 20.9 0.0 0.00 0.00 0.00 63 1010.0
20260506135615 21 160 20.9 0.0 0.00 0.00 0.00 63 1010.0
20260506135114 21 160 20.9 0.0 0.00 0.00 0.00 63 1010.0
20260506134112 22 160 20.9 0.0 0.00 0.00 0.00 62 1010.0
20260506133611 22 160 20.9 0.0 0.00 0.00 0.00 62 1010.0
20260506133110 22 160 20.9 0.0 0.00 0.00 0.00 61 1010.0
20260506132609 22 160 20.9 0.0 0.00 0.00 0.00 61 1010.0
20260506132108 22 160 20.9 0.0 0.00 0.00 0.00 60 1011.0
20260506131607 22 160 20.9 0.0 0.00 0.00 0.00 60 1011.0
20260506131106 22 160 20.9 0.0 0.00 0.00 0.00 60 1010.0
20260506130605 22 160 20.9 0.0 0.00 0.00 0.00 59 1010.0
20260506130104 22 160 20.9 0.0 0.00 0.00 0.00 59 1010.0
20260506125603 22 160 20.9 0.0 0.00 0.00 0.00 59 1010.0
20260506125102 22 160 20.9 0.0 0.00 0.00 0.00 59 1010.0
20260506124601 22 160 20.9 0.0 0.00 0.00 0.00 56 1010.0
20260506124100 22 160 20.9 0.0 0.00 0.00 0.00 56 1010.0
20260506123559 22 160 20.9 0.0 0.00 0.00 0.00 60 1010.0
20260506123058 22 160 20.9 0.0 0.00 0.00 0.00 60 1010.0
20260506122557 22 160 20.9 0.0 0.00 0.00 0.00 60 1010.0
20260506122056 22 160 20.9 0.0 0.00 0.00 0.00 59 1011.0
20260506121555 22 160 20.9 0.0 0.00 0.00 0.00 59 1011.0
20260506121054 22 160 20.9 0.0 0.00 0.00 0.00 55 1011.0
20260506120553 22 160 20.9 0.0 0.00 0.00 0.00 52 1010.0
20260506120052 22 160 20.9 0.0 0.00 0.00 0.00 52 1010.0
20260506115551 22 160 20.9 0.0 0.00 0.00 0.00 53 1010.0
20260506115050 22 160 20.9 0.0 0.00 0.00 0.00 53 1010.0
20260506114550 22 160 20.9 0.0 0.00 0.00 0.00 56 1010.0
20260506114049 22 160 20.9 0.0 0.00 0.00 0.00 56 1010.0
20260506113548 22 160 20.9 0.0 0.00 0.00 0.00 56 1010.0
20260506113047 22 160 20.9 0.0 0.00 0.00 0.00 56 1010.0
20260506112546 22 160 20.9 0.0 0.00 0.00 0.00 55 1011.0
20260506112045 22 160 20.9 0.0 0.00 0.00 0.00 55 1011.0
20260506111544 22 160 20.9 0.0 0.00 0.00 0.00 55 1011.0
20260506111043 22 160 20.9 0.0 0.00 0.00 0.00 53 1011.0
20260506110542 22 160 20.9 0.0 0.00 0.00 0.00 53 1011.0
20260506110041 22 160 20.9 0.0 0.00 0.00 0.00 53 1011.0
20260506105540 22 160 20.9 0.0 0.00 0.00 0.00 54 1011.0
20260506105039 22 160 20.9 0.0 0.00 0.00 0.00 54 1011.0
20260506104538 21 160 20.9 0.0 0.00 0.00 0.00 55 1011.0
20260506104037 21 160 20.9 0.0 0.00 0.00 0.00 55 1011.0
20260506103536 21 160 20.9 0.0 0.00 0.00 0.00 56 1011.0
20260506103035 21 160 20.9 0.0 0.00 0.00 0.00 56 1011.0
20260506102534 21 160 20.9 0.0 0.00 0.00 0.00 57 1011.0
20260506102034 21 160 20.9 0.0 0.00 0.00 0.00 57 1011.0
20260506101532 21 160 20.9 0.0 0.00 0.00 0.00 60 1011.0
20260506101031 21 160 20.9 0.0 0.00 0.00 0.00 60 1011.0
20260506100530 21 160 20.9 0.0 0.00 0.00 0.00 60 1011.0
20260506100029 21 160 20.9 0.0 0.00 0.00 0.00 60 1011.0
20260506095528 21 160 20.9 0.0 0.00 0.00 0.00 61 1011.0
20260506095027 21 160 20.9 0.0 0.00 0.00 0.00 61 1011.0
20260506094526 21 160 20.9 0.0 0.00 0.00 0.00 60 1011.0
20260506094025 21 160 20.9 0.0 0.00 0.00 0.00 60 1011.0
20260506093524 21 160 20.9 0.0 0.00 0.00 0.00 60 1011.0
20260506093023 20 160 20.9 0.0 0.00 0.00 0.00 61 1011.0
20260506092522 20 160 20.9 0.0 0.00 0.00 0.00 61 1011.0
20260506092021 20 160 20.9 0.0 0.00 0.00 0.00 63 1011.0
20260506091520 20 160 20.9 0.0 0.00 0.00 0.00 63 1011.0
20260506091019 20 160 20.9 0.0 0.00 0.00 0.00 64 1011.0
20260506090518 20 160 20.9 0.0 0.00 0.00 0.00 64 1011.0
20260506090017 20 160 20.9 0.0 0.00 0.00 0.00 64 1011.0
20260506085516 20 160 20.9 0.0 0.00 0.00 0.00 65 1011.0
20260506085015 20 160 20.9 0.0 0.00 0.00 0.00 65 1011.0
20260506084514 19 160 20.9 0.0 0.00 0.00 0.00 64 1011.0
20260506084014 19 160 20.9 0.0 0.00 0.00 0.00 64 1011.0
20260506083513 19 160 20.9 0.0 0.00 0.00 0.00 64 1011.0
20260506083012 19 160 20.9 0.0 0.00 0.00 0.00 60 1011.0
20260506082511 19 160 20.9 0.0 0.00 0.00 0.00 60 1011.0
20260506082010 19 160 20.9 0.0 0.00 0.00 0.00 60 1011.0
20260506081509 19 160 20.9 0.0 0.00 0.00 0.00 60 1011.0
20260506081008 18 160 20.9 0.0 0.00 0.00 0.00 58 1011.0
20260506080507 18 160 20.9 0.0 0.00 0.00 0.00 58 1011.0
20260506073501 18 160 20.9 0.0 0.00 0.00 0.00 57 1011.0
20260506073000 17 160 20.9 0.0 0.00 0.00 0.00 58 1011.0
20260506072459 17 160 20.9 0.0 0.00 0.00 0.00 58 1011.0
20260506071958 16 160 20.9 0.0 0.00 0.00 0.00 59 1011.0
20260506071457 16 160 20.9 0.0 0.00 0.00 0.00 59 1011.0
20260506070956 16 160 20.9 0.0 0.00 0.00 0.00 61 1011.0
20260506070455 16 160 20.9 0.0 0.00 0.00 0.00 61 1011.0
20260506062448 15 160 20.9 0.0 0.00 0.00 0.00 64 1011.0
20260506061947 15 160 20.9 0.0 0.00 0.00 0.00 64 1011.0
20260506061446 15 160 20.9 0.0 0.00 0.00 0.00 62 1011.0
20260506060945 15 160 20.9 0.0 0.00 0.00 0.00 59 1011.0
20260506060444 15 160 20.9 0.0 0.00 0.00 0.00 58 1011.0
20260506050933 15 160 20.9 0.0 0.00 0.00 0.00 61 1010.0
20260506050432 14 160 20.9 0.0 0.00 0.00 0.00 65 1010.0
20260506044930 14 160 20.9 0.0 0.00 0.00 0.00 66 1010.0
20260506044429 14 160 20.9 0.0 0.00 0.00 0.00 66 1010.0
20260506043928 14 160 20.9 0.0 0.00 0.00 0.00 66 1010.0
20260506043427 14 160 20.9 0.0 0.00 0.00 0.00 66 1010.0
20260506042926 14 160 20.9 0.0 0.00 0.00 0.00 66 1010.0
20260506042425 14 160 20.9 0.0 0.00 0.00 0.00 66 1010.0
20260506041924 15 160 20.9 0.0 0.00 0.00 0.00 66 1010.0
20260506041423 15 160 20.9 0.0 0.00 0.00 0.00 66 1010.0
20260506040922 15 160 20.9 0.0 0.00 0.00 0.00 66 1010.0
20260506040421 15 160 20.9 0.0 0.00 0.00 0.00 66 1010.0
20260506035920 15 160 20.9 0.0 0.00 0.00 0.00 66 1010.0
20260506035419 15 160 20.9 0.0 0.00 0.00 0.00 67 1010.0
20260506034918 15 160 20.9 0.0 0.00 0.00 0.00 67 1010.0
20260506034417 15 160 20.9 0.0 0.00 0.00 0.00 68 1010.0
20260506033916 15 160 20.9 0.0 0.00 0.00 0.00 68 1010.0
20260506033415 15 160 20.9 0.0 0.00 0.00 0.00 68 1010.0
20260506032914 15 160 20.9 0.0 0.00 0.00 0.00 68 1010.0
20260506032414 15 160 20.9 0.0 0.00 0.00 0.00 68 1010.0
20260506031913 15 160 20.9 0.0 0.00 0.00 0.00 67 1010.0
20260506031412 15 160 20.9 0.0 0.00 0.00 0.00 67 1010.0
20260506030911 15 160 20.9 0.0 0.00 0.00 0.00 65 1010.0
20260506030410 15 160 20.9 0.0 0.00 0.00 0.00 65 1010.0
20260506025909 15 160 20.9 0.0 0.00 0.00 0.00 65 1010.0
20260506025408 15 160 20.9 0.0 0.00 0.00 0.00 65 1010.0
20260506024907 15 160 20.9 0.0 0.00 0.00 0.00 66 1010.0
20260506024406 15 160 20.9 0.0 0.00 0.00 0.00 66 1010.0
20260506023905 15 160 20.9 0.0 0.00 0.00 0.00 66 1010.0
20260506023404 15 160 20.9 0.0 0.00 0.00 0.00 66 1010.0
20260506022903 15 160 20.9 0.0 0.00 0.00 0.00 68 1010.0
20260506022402 15 160 20.9 0.0 0.00 0.00 0.00 68 1010.0
20260506021901 16 160 20.9 0.0 0.00 0.00 0.00 66 1010.0
20260506021401 16 160 20.9 0.0 0.00 0.00 0.00 66 1010.0
20260506020900 16 160 20.9 0.0 0.00 0.00 0.00 67 1010.0
20260506020359 16 160 20.9 0.0 0.00 0.00 0.00 67 1010.0
20260506015858 16 160 20.9 0.0 0.00 0.00 0.00 70 1010.0
20260506015357 16 160 20.9 0.0 0.00 0.00 0.00 70 1010.0
20260506014856 16 160 20.9 0.0 0.00 0.00 0.00 72 1010.0
20260506014355 16 160 20.9 0.0 0.00 0.00 0.00 72 1010.0
20260506013854 16 160 20.9 0.0 0.00 0.00 0.00 73 1010.0